CAPE
1189 1286 1315 1335 1309 1285 1256 1258 1239 1186 1112 1053 1010 928 1035 1285 1268 1127 1177 1352 1402 1471 1508 1548 1572 1579 1631 1754 1841 1940 2058 2165 2253 2337 2394 2410 2426 2475 2567 2699 2794 2729 2494 2424 2434 2461 2397 2206 2016 1747 1434 625 16 18 19 27 32 2 0 222 231 0 0 0 0 0 0 0 0 0 0 0 0 0 0 0 2 55 232 70 1 0 0 0 0
1104 1191 1239 1272 1290 1273 1248 1239 1242 1220 1171 1102 1098 1072 995 1115 1380 1390 1296 1366 1514 1581 1590 1600 1604 1604 1600 1652 1761 1850 1978 2107 2221 2292 2341 2353 2379 2402 2480 2582 2630 2673 2559 2376 2356 2360 2343 2220 2109 1956 1740 1393 603 10 14 537 70 86 20 467 655 695 600 54 0 0 0 0 0 0 68 3 0 0 0 0 0 10 49 151 126 18 3 0 0
1103 1168 1211 1232 1247 1248 1228 1227 1231 1217 1182 1133 1100 1143 1143 1114 1234 1480 1535 1459 1518 1654 1718 1726 1724 1698 1645 1608 1665 1773 1900 2032 2184 2307 2335 2350 2370 2382 2429 2490 2528 2536 2520 2403 2287 2290 2270 2193 2130 2050 1846 1634 1305 712 9 260 237 122 152 280 563 685 763 718 566 236 0 0 0 0 32 48 184 345 0 0 3 1 10 50 134 170 133 44 6
1151 1203 1237 1244 1249 1253 1248 1229 1210 1193 1188 1170 1148 1152 1197 1225 1265 1429 1587 1628 1602 1642 1743 1816 1871 1860 1795 1709 1653 1724 1845 1962 2094 2248 2338 2354 2363 2377 2397 2438 2480 2508 2511 2417 2259 2237 2250 2218 2163 2083 1972 1762 1513 1243 745 6 10 46 146 400 462 570 728 814 762 555 428 26 24 0 0 28 6 0 501 528 522 467 25 12 35 118 168 159 76
1167 1232 1288 1300 1302 1292 1269 1242 1210 1196 1190 1198 1194 1173 1196 1231 1269 1406 1560 1678 1713 1708 1737 1809 1883 1947 1952 1892 1813 1763 1818 1947 2055 2150 2264 2339 2358 2368 2392 2418 2446 2458 2473 2414 2285 2164 2165 2167 2134 2058 2000 1928 1707 1534 1326 821 64 16 322 167 247 392 599 761 830 752 651 600 560 517 487 458 413 413 410 424 459 484 464 270 42 74 114 132 134
1271 1301 1352 1395 1401 1356 1330 1299 1277 1254 1237 1239 1237 1222 1222 1231 1247 1330 1463 1645 1767 1782 1792 1846 1886 1933 1974 1986 1934 1870 1843 1910 2045 2138 2216 2307 2360 2368 2377 2382 2378 2392 2388 2374 2310 2208 2124 2075 2038 1992 1944 1925 1774 1622 1534 1414 1045 328 20 36 92 242 494 638 782 827 800 746 717 707 642 675 628 614 604 546 485 412 366 403 465 105 60 93 102
1473 1446 1460 1498 1523 1503 1446 1404 1356 1334 1322 1310 1296 1287 1271 1252 1248 1274 1345 1502 1674 1806 1844 1862 1923 1942 1945 1968 1994 1986 1955 1942 2004 2114 2209 2277 2343 2383 2374 2360 2358 2340 2325 2312 2267 2232 2176 2115 2043 1938 1875 1841 1794 1680 1544 1482 1463 1266 753 15 22 90 208 478 673 808 830 804 773 745 754 734 729 738 716 680 644 542 375 8 3 7 17 51 113
1674 1638 1600 1608 1630 1649 1610 1544 1488 1450 1412 1396 1375 1356 1326 1298 1287 1279 1279 1339 1462 1681 1858 1898 1922 1967 1986 1956 1941 1957 2005 2041 2055 2080 2146 2225 2296 2362 2379 2362 2338 2322 2307 2286 2268 2236 2214 2178 2106 2016 1932 1830 1749 1662 1563 1450 1372 1343 1217 1028 674 177 98 136 236 587 770 798 769 771 732 745 720 723 702 695 658 596 511 0 24 17 2 11 44
1901 1856 1808 1766 1752 1753 1763 1747 1693 1625 1572 1517 1468 1440 1412 1379 1346 1333 1321 1313 1314 1413 1658 1895 1972 1983 2000 2012 2003 1952 1914 1953 2039 2093 2119 2172 2225 2291 2351 2378 2367 2350 2332 2324 2324 2328 2308 2263 2199 2134 2040 1932 1805 1681 1553 1425 1314 1222 1167 1101 1020 893 606 70 96 87 413 574 652 690 712 724 708 678 656 629 602 306 53 0 11 14 2 4 43
2146 2114 2056 2002 1947 1901 1905 1903 1878 1836 1774 1721 1675 1612 1512 1475 1430 1399 1382 1363 1348 1333 1356 1560 1855 1995 2017 2016 2023 2050 2041 1984 1952 2023 2092 2140 2195 2236 2288 2352 2407 2406 2384 2360 2358 2368 2376 2368 2314 2255 2197 2119 2030 1902 1764 1616 1459 1314 1180 1047 959 882 803 726 555 286 130 286 400 444 478 504 502 474 460 447 422 75 54 0 22 66 0 2 32
2362 2326 2301 2254 2197 2136 2084 2059 2037 2014 1982 1924 1882 1834 1740 1616 1542 1483 1442 1425 1401 1380 1348 1350 1466 1733 1946 2005 2002 1984 2056 2113 2103 2070 2104 2177 2193 2236 2270 2332 2408 2476 2480 2466 2428 2390 2382 2397 2402 2390 2350 2316 2267 2196 2080 1937 1753 1585 1466 1342 1189 1028 888 790 700 611 534 480 416 362 271 357 372 357 333 319 296 66 102 36 7 12 7 21 113
2532 2515 2504 2475 2452 2396 2336 2272 2239 2206 2168 2136 2074 2027 1983 1890 1730 1595 1528 1497 1471 1440 1410 1383 1357 1401 1577 1824 1971 1971 1940 1980 2104 2188 2217 2218 2240 2273 2299 2325 2376 2461 2534 2565 2544 2488 2419 2376 2372 2381 2384 2378 2360 2311 2282 2216 2123 2003 1858 1712 1534 1380 1230 1108 989 894 821 753 682 604 524 485 458 404 330 184 114 66 63 45 18 34 40 32 63
2597 2646 2648 2642 2622 2588 2550 2510 2466 2420 2374 2318 2268 2238 2241 2186 2078 1887 1674 1591 1552 1539 1510 1455 1437 1399 1405 1494 1674 1884 1962 1941 1962 2049 2181 2246 2274 2294 2321 2352 2365 2397 2463 2541 2583 2570 2540 2487 2444 2402 2390 2397 2402 2382 2322 2237 2181 2143 2100 1998 1895 1745 1633 1520 1416 1314 1206 1118 1040 968 855 783 755 724 650 573 454 385 331 288 260 146 75 87 126
2667 2720 2743 2746 2736 2708 2682 2654 2620 2588 2553 2514 2475 2458 2478 2444 2374 2262 2088 1856 1662 1622 1596 1577 1547 1521 1482 1455 1478 1595 1776 1898 1980 2000 2003 2087 2192 2236 2257 2285 2344 2370 2392 2435 2484 2536 2562 2547 2505 2468 2426 2400 2388 2390 2380 2346 2269 2186 2125 2069 2021 1937 1851 1796 1705 1621 1569 1476 1350 1248 1147 1049 1000 948 871 787 686 611 558 510 464 434 396 380 426
2796 2861 2899 2889 2869 2838 2790 2764 2742 2720 2697 2682 2657 2676 2666 2617 2572 2557 2484 2364 2168 1922 1684 1666 1647 1614 1571 1532 1501 1514 1596 1738 1901 1983 2000 2016 2058 2177 2235 2215 2225 2296 2356 2392 2416 2446 2478 2492 2501 2483 2443 2408 2388 2377 2370 2364 2331 2282 2217 2151 2076 1990 1924 1894 1855 1778 1710 1636 1541 1403 1268 1204 1139 1026 950 796 722 704 686 672 690 730 794 818 874
2879 2976 3035 3064 3058 3015 2955 2915 2867 2850 2845 2847 2862 2863 2823 2829 2897 2926 2892 2799 2676 2484 2257 1987 1726 1674 1675 1655 1601 1565 1561 1640 1806 1930 2014 2042 2037 2043 2154 2210 2224 2231 2274 2333 2369 2395 2428 2460 2484 2494 2493 2480 2474 2444 2418 2362 2326 2312 2286 2242 2177 2090 2036 1980 1945 1914 1805 1794 1742 1636 1624 1626 1658 1676 1656 1621 1540 1444 1417 1400 1374 1178 1162 1159 1202
3018 3132 3180 3229 3257 3238 3183 3111 3074 3052 3050 3050 3042 3012 2996 3057 3148 3193 3203 3156 3044 2878 2652 2414 2125 1798 1717 1738 1713 1685 1664 1676 1751 1906 2044 2108 2126 2135 2126 2119 2161 2217 2268 2322 2362 2390 2421 2462 2503 2544 2553 2573 2575 2568 2552 2536 2503 2471 2431 2384 2305 2195 2183 2225 2294 2404 2464 2640 2630 2637 2638 2593 2575 2541 2479 2406 2300 2196 2042 1949 1864 1724 1697 1702 1649
3080 3296 3404 3410 3460 3458 3428 3366 3326 3282 3254 3238 3189 3169 3172 3236 3320 3375 3408 3348 3245 3114 2976 2804 2563 2258 1910 1709 1755 1768 1766 1747 1768 1851 1994 2127 2209 2268 2289 2270 2255 2238 2270 2319 2372 2424 2467 2494 2531 2557 2577 2615 2618 2638 2646 2635 2625 2594 2546 2496 2484 2532 2642 2731 2833 2872 2840 2882 2945 2980 2928 2844 2788 2739 2681 2624 2542 2403 2194 2131 2170 2014 1923 1827 1812
2873 3185 3476 3571 3597 3624 3620 3601 3540 3497 3456 3409 3351 3344 3360 3412 3464 3494 3507 3490 3476 3389 3222 3031 2824 2591 2332 2052 1740 1779 1785 1790 1813 1834 1875 2006 2138 2254 2304 2318 2300 2296 2320 2330 2338 2381 2450 2502 2572 2608 2633 2645 2659 2677 2692 2692 2695 2691 2646 2678 2775 2808 2927 2950 3090 3149 2978 2961 3134 2830 2841 2903 2793 2820 2812 2790 2695 2610 2556 2429 2376 2324 2045 2100 1967
2828 2861 3114 3503 3719 3736 3759 3767 3724 3676 3628 3569 3532 3520 3528 3558 3595 3589 3572 3556 3559 3521 3432 3277 3094 2894 2702 2543 2369 2147 1878 1855 1880 1899 1905 1929 2021 2144 2239 2258 2276 2315 2343 2367 2378 2405 2444 2506 2567 2632 2676 2722 2742 2759 2766 2741 2705 2724 2778 2893 2988 3028 3164 2950 2690 2496 2448 2840 2604 2416 2584 2555 2446 2440 2495 2506 2479 2390 2268 2243 2214 2238 2223 1849 1766
3114 3142 3146 3126 3530 3762 3810 3820 3818 3795 3752 3720 3690 3678 3670 3684 3672 3659 3645 3598 3596 3565 3525 3422 3270 3118 2954 2812 2693 2576 2429 2282 2065 2058 2077 2086 2087 2160 2246 2283 2320 2379 2425 2449 2477 2506 2553 2601 2654 2693 2742 2780 2804 2754 2812 2897 2980 3082 3124 3191 3270 3294 3348 3255 2900 2539 2726 2568 2568 2558 2545 2547 2531 2389 2436 2454 2437 2392 2316 2331 2337 2110 2023 2072 2072
3219 3234 3323 3388 3435 3516 3755 3826 3840 3832 3803 3797 3788 3766 3748 3723 3708 3706 3679 3644 3603 3569 3538 3487 3403 3278 3147 3022 2909 2830 2749 2663 2549 2385 2198 2304 2316 2327 2336 2390 2453 2516 2556 2596 2626 2673 2730 2784 2819 2846 2868 2879 3036 3174 3264 3290 3279 3311 3442 3491 3482 3347 3190 2874 2551 2242 2635 2561 2610 2669 2601 2719 2728 2728 2624 2516 2551 2547 2649 2626 2532 2506 2324 2208 2129
3299 3288 3485 3570 3609 3627 3611 3620 3798 3840 3856 3836 3820 3798 3766 3753 3750 3736 3724 3699 3654 3603 3566 3516 3451 3374 3291 3187 3095 3018 2927 2840 2758 2682 2567 2481 2537 2561 2574 2581 2585 2588 2647 2688 2718 2763 2798 2781 2848 3097 3247 3329 3372 3402 3433 3471 3511 3538 3552 3609 3583 3495 3421 3436 3245 2806 3076 2902 2624 2550 2564 2568 2541 2463 2607 2655 2729 2684 2626 2532 2498 2334 2227 2206 2167
4714 3600 2867 2648 3080 3350 3494 3572 3590 3779 3862 3901 3917 3890 3852 3826 3806 3798 3792 3763 3723 3684 3612 3556 3483 3436 3386 3310 3248 3182 3112 3039 2980 2904 2835 2788 2683 2570 2706 2746 2749 2762 2776 2810 2813 2865 3024 3196 3336 3410 3410 3479 3540 3588 3622 3594 3598 3641 3642 3599 3570 3530 3414 3344 2878 2502 2555 2621 2654 2590 2670 2998 3092 3108 3148 3160 3062 3000 2734 2555 2218 2018 1940 1792 1696
4843 4630 3872 3315 2916 3058 3246 3384 3521 3675 3810 3886 3936 3942 3936 3901 3885 3872 3851 3830 3788 3740 3682 3604 3546 3483 3418 3370 3341 3295 3273 3240 3191 3114 3062 3026 2982 2946 2864 2738 2796 2876 3028 3132 3185 3243 3345 3451 3484 3531 3594 3633 3716 3802 3854 3914 3901 3845 3780 3761 3726 3686 3620 3415 2978 2096 2668 2946 3258 3360 3333 3356 3217 3066 2901 2338 1715 1030 930 818 807 848 977 1084 1185
4611 4769 4914 4398 3672 3118 3296 3420 3521 3632 3762 3845 3896 3924 3930 3920 3923 3909 3873 3858 3801 3757 3721 3662 3604 3538 3506 3481 3446 3452 3446 3430 3414 3379 3340 3324 3282 3253 3188 3119 3356 3438 3496 3505 3528 3567 3598 3684 3764 3804 3923 4041 4095 4122 4051 3966 3960 3959 3933 3864 3783 3686 3596 3430 3320 3385 3369 3253 3162 2912 2448 1696 995 586 473 378 268 270 134 163 328 554 730 793 829
4628 4709 4842 4938 4547 3885 3294 3562 3672 3742 3803 3869 3915 3937 3956 3934 3917 3891 3876 3848 3810 3779 3738 3714 3690 3654 3631 3600 3598 3611 3626 3641 3638 3630 3637 3651 3644 3604 3524 3461 3651 3700 3725 3742 3780 3857 3964 4117 4185 4280 4245 4189 4134 4087 4130 4064 4029 3966 3897 3766 3608 3406 3284 3154 3010 2754 2364 1862 1040 66 0 0 1 2 7 4 1 4 5 0 2 52 166 326 392
4634 4762 4843 4906 4784 4324 3931 4107 4092 3959 4000 4005 4004 4012 4014 3976 3946 3936 3906 3882 3860 3845 3833 3808 3798 3793 3776 3764 3779 3821 3869 3874 3884 3900 3948 3975 3963 3900 3808 3725 3698 3864 3909 3959 4068 4196 4282 4278 4224 4199 4163 4174 4171 4178 4150 4082 3946 3733 3496 3402 3316 3104 2786 2364 1747 821 111 113 102 80 42 46 48 55 32 18 11 5 3 3 3 11 43 94 158
4576 4717 4842 4857 4853 4556 4106 4023 4235 4192 4226 4219 4204 4179 4170 4178 4078 4038 4005 4004 3989 4016 3962 3946 3953 3936 3934 3962 4020 4060 4102 4107 4135 4130 4219 4226 4194 4136 4074 3982 3882 4157 4260 4250 4168 4150 4159 4144 4137 4134 4158 4101 3982 3838 3660 3478 3386 3348 3254 3090 2712 2240 1288 72 1 0 0 3 6 9 11 11 10 9 14 18 14 14 10 16 24 39 48 75 77
4537 4651 4771 4870 4842 4642 4234 4422 4401 4318 4288 4285 4324 4319 4316 4332 4324 4297 4287 4202 4220 4214 4178 4224 4233 4238 4300 4339 4309 4345 4413 4441 4436 4420 4384 4338 4319 4256 4202 4122 4087 4027 3980 4095 4097 4111 4093 3992 3834 3652 3528 3443 3406 3384 3388 3322 3252 3028 2599 1666 112 1 1 2 4 5 7 8 11 11 11 10 10 13 17 20 18 8 6 10 14 18 30 32 50
4457 4652 4715 4825 4888 4784 4483 4472 4424 4375 4340 4348 4329 4350 4291 4446 4519 4548 4498 4578 4522 4479 4478 4512 4532 4568 4646 4734 4710 4672 4640 4629 4594 4580 4542 4473 4402 4362 4317 4219 4164 4128 4046 3890 3780 3682 3594 3474 3396 3320 3300 3362 3368 3174 2869 2579 2058 1011 0 0 0 0 1 2 2 2 3 6 6 8 10 12 13 16 16 13 16 19 18 14 19 26 31 35 38
4140 4468 4677 4720 4779 4867 4794 4503 4399 4415 4447 4420 4375 4346 4344 4290 4404 4667 4742 4773 4794 4840 4822 4800 4850 4920 4964 4970 4971 4949 4875 4774 4667 4668 4661 4659 4602 4516 4432 4343 4242 4154 3979 3768 3702 3646 3541 3449 3378 3382 3308 2906 2449 2199 1786 304 2 2 2 0 0 0 0 0 0 2 4 4 4 3 4 6 9 9 11 12 8 8 8 8 10 12 16 22 23
3430 3960 4428 4664 4730 4752 4942 4881 4642 4477 4498 4479 4489 4463 4437 4422 4463 4504 4720 4923 4990 5052 5125 5170 5170 5195 5200 5197 5140 5014 4940 4868 4782 4740 4746 4727 4647 4548 4391 4228 4028 3925 3912 3807 3659 3508 3470 3437 3318 2971 2684 2253 1385 218 1 2 2 3 2 1 0 0 0 0 0 0 0 1 2 4 3 4 3 2 2 3 4 5 7 7 6 8 10 14 13
3160 3560 3890 4305 4607 4733 4817 4962 4964 4787 4562 4539 4559 4582 4600 4640 4640 4624 4578 4605 4848 5078 5172 5246 5326 5311 5324 5260 5092 4983 4876 4692 4649 4676 4695 4584 4408 4209 4110 3988 3876 3782 3705 3647 3555 3390 3051 2699 2313 2018 1378 350 1 2 1 1 2 1 0 0 0 0 0 0 0 0 0 0 0 0 0 0 0 0 1 0 1 3 4 6 8 12 11 14 13
2904 3413 3669 3774 4181 4534 4718 4756 4871 4965 4917 4722 4677 4669 4749 4790 4797 4672 4524 4454 4548 4809 4968 5008 5022 4980 5004 5008 4791 4544 4466 4368 4329 4340 4308 4185 4050 3955 3766 3700 3758 3656 3262 2956 2797 2536 2152 1696 1033 294 0 0 0 1 1 1 1 0 0 0 0 0 0 0 0 0 0 0 0 0 0 0 0 0 0 0 0 0 1 1 2 1 2 2 0
2617 3104 3318 3585 3830 4131 4492 4742 4688 4758 4858 4869 4806 4750 4749 4775 4765 4697 4641 4593 4508 4548 4608 4523 4436 4394 4440 4495 4320 4106 3961 4031 3933 3856 3842 3786 3717 3694 3648 3508 3242 3066 2756 2398 1955 1497 1255 550 0 0 0 0 1 2 3 2 1 0 0 0 0 0 0 0 0 0 0 0 0 0 0 0 0 0 0 0 0 0 0 0 0 0 0 0 0
2354 2573 2844 3104 3441 3811 4219 4489 4734 4661 4584 4666 4758 4784 4800 4816 4817 4825 4815 4782 4583 4405 4380 4218 4049 4010 4088 4082 4046 3912 3788 3706 3660 3670 3694 3614 3472 3322 3090 2718 2410 2151 1859 1416 938 371 0 0 0 0 0 0 1 2 1 0 0 0 0 0 0 0 0 0 0 0 0 0 0 0 0 0 0 0 0 0 0 0 0 0 0 0 0 0 0
2169 2244 2259 2699 3185 3572 3891 4250 4582 4684 4622 4536 4527 4642 4782 4858 4934 4937 4890 4670 4403 4291 4204 4227 4129 3988 3787 3694 3597 3591 3498 3456 3289 3145 3036 2962 2817 2680 2524 2471 2202 1852 1536 384 0 0 0 0 0 0 0 0 0 0 0 0 0 0 0 0 0 0 0 0 0 0 0 0 0 0 0 0 0 0 0 0 0 0 0 0 0 0 0 0 0
2050 2110 2269 2518 2987 3330 3674 3948 4230 4605 4686 4582 4411 4386 4551 4709 4798 4753 4630 4421 4255 4116 4098 4053 4010 3959 3856 3631 3258 3049 2904 3059 2906 2677 2564 2508 2410 2297 2060 1700 1445 569 0 0 0 0 0 0 0 0 0 0 0 0 0 0 0 0 0 0 0 0 0 0 0 0 0 0 0 0 0 0 0 0 0 0 0 0 0 0 0 0 0 0 0
1801 1861 1926 2153 2554 3006 3367 3503 3709 4269 4564 4598 4419 4260 4316 4415 4467 4393 4331 4195 4103 4079 3910 3590 3367 3572 3622 3386 3202 2875 2837 2696 2388 2154 1798 1543 1237 990 635 0 0 0 0 0 0 0 0 0 0 0 0 0 0 0 0 0 0 0 0 0 0 0 0 0 0 0 0 0 0 0 0 0 0 0 0 0 0 0 0 0 0 0 0 0 0
1462 1668 1743 1879 2210 2545 2905 3116 3337 3838 4330 4423 4309 4214 4202 4192 4105 3907 3773 3341 3172 3060 3444 3269 3198 3036 2835 2721 2642 2402 2139 1943 1706 1375 914 253 0 0 0 0 0 0 0 0 0 0 0 0 0 0 0 0 0 0 0 0 0 0 0 0 0 0 0 0 0 0 0 0 0 0 0 0 0 0 0 0 0 0 0 0 0 0 0 0 0
1240 1418 1575 1741 1965 2220 2566 2795 3112 3258 3911 4130 3959 3887 3994 3923 3562 3081 2985 2632 2610 2663 2706 2956 2892 2898 2696 2452 2033 1567 1099 912 529 64 0 0 0 0 0 0 0 0 0 0 0 0 0 0 0 0 0 0 0 0 1 1 0 0 0 0 0 0 0 0 0 0 0 0 0 0 0 0 0 0 0 0 0 0 0 0 0 0 0 0 0
1142 1257 1388 1602 1878 2028 2212 2462 2748 2911 3015 3183 3280 2982 2909 2780 2577 2868 2425 2166 2240 2418 2520 2308 2160 2127 2010 1740 1389 1004 284 0 0 0 0 0 0 0 0 0 0 0 0 0 0 0 0 0 0 0 0 0 0 0 0 0 0 0 0 0 0 0 0 0 0 0 0 0 0 0 0 0 0 0 0 0 0 0 0 0 0 0 0 0 0
1026 1124 1259 1386 1664 1808 1912 2090 2386 2658 2844 2930 2949 2713 2377 2339 2298 2442 2320 2142 2062 2042 1859 1766 1657 1658 1624 1546 1422 1090 500 0 0 0 0 0 0 0 0 0 0 0 0 0 0 0 0 0 0 0 0 0 0 0 0 0 0 0 0 0 0 0 0 0 0 0 0 0 0 0 0 0 0 0 0 0 0 0 0 0 0 0 0 0 0
975 1022 1106 1231 1334 1496 1675 1863 2086 2220 2390 2536 2692 2576 2204 2069 2156 1916 1789 1719 1753 1770 1834 1746 1516 1438 1464 1404 1207 692 141 0 0 0 0 0 0 0 0 0 0 0 0 0 0 0 0 0 0 0 0 0 0 0 0 0 0 0 0 0 0 0 0 0 0 0 0 0 0 0 0 0 0 0 0 0 0 0 0 0 0 0 0 0 0
929 979 1012 1053 1158 1285 1446 1622 1789 1877 1998 2134 2290 2238 2194 2046 1612 1689 1539 1440 1444 1330 1330 1302 1259 1166 1025 855 616 26 0 0 0 0 0 0 0 0 1 1 2 2 1 0 0 0 0 0 0 0 0 0 0 0 0 0 0 0 0 0 0 0 0 0 0 0 0 0 0 0 0 0 0 0 0 0 0 0 0 0 0 0 0 0 0
837 884 934 952 1017 1121 1268 1503 1602 1610 1605 1674 1676 1798 1872 1859 1475 1226 1196 1216 1142 1044 1076 1007 963 1007 807 557 0 0 0 0 0 0 0 0 0 0 0 0 0 0 0 0 0 0 0 0 0 0 0 0 0 0 0 0 0 0 0 0 0 0 0 0 0 0 0 0 0 0 0 0 0 0 0 0 0 0 0 0 0 0 0 0 0
744 763 804 842 847 944 1024 1058 1016 1046 1170 1328 1462 1530 1531 1568 1574 1494 1410 1289 1125 1000 916 735 520 504 151 0 0 0 0 0 0 0 0 0 0 1 0 0 0 0 0 0 0 0 0 0 0 0 0 0 0 0 0 0 0 0 0 0 0 0 0 0 0 0 0 0 0 0 0 0 0 0 0 0 0 0 0 0 0 0 0 0 0
581 599 676 740 748 818 735 611 616 604 986 1110 1089 690 742 716 974 1041 954 760 650 499 403 137 0 0 0 0 0 0 0 0 0 0 0 0 1 2 1 3 3 5 4 2 0 0 0 0 0 0 0 0 0 0 0 0 0 0 0 0 0 0 0 0 0 0 0 0 0 0 0 0 0 0 0 0 0 0 0 0 0 0 0 0 0
593 562 618 662 642 264 330 258 182 212 265 248 258 150 341 276 67 408 538 264 18 0 0 0 0 0 0 0 0 0 0 0 0 0 0 0 0 0 1 2 3 3 4 3 2 0 0 0 0 0 0 0 0 0 0 0 0 0 0 0 0 0 0 0 0 0 0 0 0 0 0 0 0 0 0 0 0 0 0 0 0 0 0 0 0
119 150 209 115 114 236 252 151 210 92 132 182 222 30 0 0 0 11 9 0 0 0 0 0 0 0 0 0 0 0 0 0 0 0 0 0 0 0 0 0 1 2 2 2 2 1 0 0 0 0 0 0 0 0 0 0 0 0 0 0 0 0 0 0 0 0 0 0 0 0 0 0 0 0 0 0 0 0 0 0 0 0 0 0 0
Wind_Speed
5 6 9 8 9 8 9 11 10 11 11 10 9 10 11 11 10 9 11 8 7 5 4 3 2 0 1 3 4 5 6 7 8 8 9 9 10 11 12 13 14 14 14 14 14 15 17 18 19 19 16 14 nan nan nan nan nan nan nan 11 12 nan nan nan nan nan nan nan nan nan nan nan nan nan nan nan nan nan 24 nan nan nan nan nan nan
4 5 8 8 6 8 10 12 12 12 10 10 10 11 11 11 10 11 9 9 8 6 4 4 3 2 2 3 4 5 7 8 10 11 10 10 10 11 12 13 13 13 13 14 15 14 15 16 17 18 18 18 14 nan nan 7 nan nan nan 10 10 11 12 nan nan nan nan nan nan nan nan nan nan nan nan nan nan nan nan 24 25 nan nan nan nan
4 7 7 7 6 8 11 12 11 9 8 10 10 11 11 11 11 10 10 11 10 7 6 4 4 4 4 4 5 6 7 8 10 11 12 12 12 11 12 12 13 12 13 14 15 14 14 15 16 16 16 16 16 14 nan 8 7 7 8 8 9 10 11 12 12 13 nan nan nan nan nan nan 21 19 nan nan nan nan nan nan 26 26 27 nan nan
6 7 8 7 7 9 10 11 9 8 8 10 10 10 11 10 11 11 11 11 9 9 8 6 6 5 4 4 5 6 7 8 9 10 11 12 12 12 12 12 11 11 11 12 12 13 14 14 15 16 16 16 16 14 12 nan nan nan 7 8 9 10 11 12 14 14 12 nan nan nan nan nan nan nan 20 20 22 24 nan nan nan 27 27 28 nan
7 7 7 8 9 10 10 10 9 8 9 11 9 9 8 9 10 10 10 9 9 9 9 8 6 5 4 3 3 4 6 8 9 9 10 11 11 12 11 11 11 10 9 9 10 11 12 13 15 15 16 16 14 13 12 11 nan nan 8 8 10 10 11 13 15 15 14 14 13 14 15 16 17 19 22 22 21 22 23 26 nan nan 29 29 29
6 6 8 8 10 9 10 10 9 8 8 9 8 7 7 7 8 9 8 7 7 7 6 7 5 4 3 2 2 3 4 6 7 9 10 10 10 10 9 10 9 9 8 8 8 9 10 11 12 13 14 15 15 14 12 12 11 10 nan nan nan 12 13 14 15 15 15 15 14 13 16 18 15 18 22 25 24 23 24 26 27 29 nan nan 31
6 7 7 7 9 8 9 9 10 10 10 10 10 9 7 7 6 6 7 6 6 5 5 5 5 5 4 4 3 3 5 6 6 7 9 10 10 9 8 8 8 8 7 8 8 9 9 9 10 12 13 13 14 14 13 12 12 12 13 nan nan nan 16 16 16 16 16 15 14 17 16 20 23 20 23 27 26 27 28 nan nan nan nan nan 31
7 7 7 8 9 9 10 11 11 11 13 12 12 10 9 8 8 8 8 6 5 5 5 6 6 7 6 5 4 5 6 6 6 7 8 9 9 8 7 6 6 7 6 7 7 8 8 9 9 10 11 11 12 13 12 12 11 11 12 13 15 17 nan 18 18 18 18 18 18 17 19 20 22 23 25 29 27 25 31 nan nan nan nan nan nan
6 6 7 8 9 10 12 13 14 13 13 12 10 9 9 9 9 9 8 7 8 6 7 7 7 6 5 5 5 6 6 6 7 7 8 8 8 6 5 4 4 5 5 5 6 6 6 7 7 8 10 13 15 14 13 12 11 11 12 15 16 18 18 nan nan nan 20 20 19 19 20 21 21 23 25 29 32 30 nan nan nan nan nan nan nan
7 7 7 8 10 11 12 13 13 11 9 7 7 8 9 9 9 8 8 7 8 8 8 7 6 5 4 4 5 6 5 5 6 11 10 7 6 4 3 1 1 3 3 4 4 4 5 5 6 12 14 15 16 17 17 17 18 15 15 17 18 19 19 20 21 22 22 22 22 22 23 22 21 24 26 28 30 nan nan nan nan nan nan nan nan
7 8 8 10 12 12 12 11 11 9 8 8 8 9 9 10 10 9 8 8 8 8 8 6 4 5 5 5 4 4 4 4 8 9 9 10 5 2 1 1 3 3 2 1 1 3 4 5 6 9 11 12 14 18 18 20 20 21 21 22 23 23 21 22 22 24 24 24 23 23 24 22 21 24 27 27 31 nan 33 nan nan nan nan nan 27
9 10 11 12 12 10 10 10 9 7 8 7 8 9 10 10 9 9 9 8 9 9 6 5 5 6 7 5 3 3 3 4 7 8 8 8 6 2 1 2 3 2 2 2 3 3 5 5 6 7 8 12 12 13 16 19 21 22 23 23 24 25 26 25 24 25 26 25 24 25 25 24 22 25 26 30 30 nan nan nan nan nan nan nan nan
11 11 10 9 8 8 7 6 5 5 5 5 7 8 8 8 8 9 9 10 11 8 6 6 6 7 6 5 3 3 3 4 6 6 6 6 7 5 3 3 3 3 3 4 5 5 6 6 7 8 9 15 13 13 14 16 19 22 21 21 22 23 23 25 27 27 27 26 25 23 27 26 25 25 30 32 36 36 37 37 38 39 nan nan 36
11 9 8 7 7 6 5 4 3 3 3 4 5 5 5 4 6 8 10 11 9 7 8 6 6 7 7 7 5 5 3 2 6 5 5 6 6 3 4 5 4 5 5 5 5 6 8 7 7 8 9 10 12 14 15 16 17 19 21 23 23 23 24 25 26 26 25 26 27 24 24 32 29 27 31 39 39 37 39 38 40 40 41 41 39
11 10 8 7 7 6 5 4 3 2 3 4 5 4 4 4 6 7 9 9 9 9 8 8 7 8 8 8 7 4 4 3 5 5 5 5 4 3 3 5 6 6 6 5 6 6 6 6 7 7 7 10 12 15 16 18 19 18 20 23 26 25 25 26 28 29 28 28 27 26 23 29 32 30 32 40 40 39 41 40 40 41 42 40 37
14 13 11 9 7 6 5 5 4 4 4 5 6 5 6 6 7 8 9 9 11 12 11 10 8 7 8 9 7 4 4 5 6 5 5 4 6 5 4 4 5 7 7 5 4 4 3 4 5 6 7 10 13 18 19 19 19 19 20 22 24 25 25 29 32 32 31 28 28 28 28 28 31 33 34 38 40 41 42 42 41 44 47 42 38
15 13 12 11 9 8 8 6 6 5 6 6 6 7 8 7 7 10 9 9 11 11 11 12 11 10 10 9 6 5 7 7 7 6 6 7 10 8 7 6 5 6 7 5 3 2 1 4 5 6 8 11 15 20 22 24 21 21 21 22 25 25 22 29 36 36 35 31 29 30 30 29 30 31 31 35 40 44 49 46 43 52 52 46 42
17 15 13 12 11 10 9 9 8 7 8 8 7 7 8 8 8 10 10 10 11 11 14 15 14 12 10 8 7 7 8 9 9 8 8 11 10 9 9 8 5 5 5 4 2 1 2 7 8 8 9 11 16 22 25 29 25 24 25 25 25 24 23 31 33 34 34 32 31 32 31 30 32 32 33 35 39 48 53 49 47 58 56 53 49
18 16 15 14 12 12 12 11 10 9 9 9 8 8 9 10 10 11 10 10 12 15 16 16 16 15 12 9 7 7 9 10 11 9 10 12 11 12 12 10 6 4 4 4 4 3 2 5 9 11 11 13 17 22 27 32 28 28 30 31 28 26 28 35 36 36 37 33 30 33 32 31 36 40 39 39 41 48 53 50 49 57 57 56 57
20 20 19 17 15 13 13 12 12 12 11 11 11 10 10 11 11 12 11 10 12 15 17 16 15 15 15 13 13 11 10 11 12 10 13 14 13 13 14 10 6 5 7 6 6 5 5 7 10 13 14 15 17 21 26 33 32 30 33 34 32 29 32 39 44 48 43 30 31 38 38 38 42 46 45 43 44 49 51 52 53 56 58 58 65
29 26 23 21 18 15 14 13 12 13 14 14 14 14 14 13 13 13 12 12 11 12 14 16 16 16 17 16 15 14 13 12 13 14 14 16 15 14 13 8 8 9 9 7 7 7 9 11 14 16 18 19 21 22 26 32 34 32 33 35 36 35 37 46 62 65 42 32 34 38 38 38 41 45 46 46 46 48 51 52 53 55 58 59 63
32 30 27 24 21 18 16 15 15 16 17 19 19 17 17 17 16 15 15 14 12 9 11 14 16 17 19 19 18 16 15 13 17 16 16 17 18 16 11 8 9 10 8 8 10 11 12 15 16 18 19 20 22 23 26 29 32 35 32 32 32 35 41 50 61 60 44 35 36 37 37 36 38 43 44 45 44 43 46 49 52 54 57 59 61
33 30 26 24 23 21 19 18 19 20 20 20 21 20 21 21 20 20 18 16 14 11 10 12 14 16 18 20 21 20 20 19 16 19 17 18 18 17 14 10 12 13 12 11 13 13 15 17 18 18 20 22 24 25 28 32 37 38 34 32 35 39 46 53 62 65 46 37 38 39 37 36 38 39 41 42 42 41 44 49 51 54 56 56 57
38 34 32 28 26 24 23 22 22 22 21 22 23 23 25 24 24 23 21 18 16 14 12 12 13 13 15 18 21 22 22 22 20 19 21 18 17 17 14 11 13 16 15 13 16 17 18 22 30 36 36 35 34 34 34 38 39 37 39 39 40 45 52 62 64 64 51 41 43 43 41 39 39 38 39 43 45 44 46 49 52 52 51 52 52
45 40 37 36 33 31 30 29 26 26 26 26 26 25 26 28 27 26 25 21 19 16 14 14 12 12 14 16 19 22 22 22 23 21 20 20 18 17 15 14 12 14 16 17 19 26 35 40 40 39 38 39 41 41 41 41 41 40 40 41 44 51 56 63 64 62 55 50 50 48 46 45 44 43 44 46 46 47 48 48 47 45 45 46 48
50 47 43 40 38 38 36 33 31 30 30 30 28 28 27 28 28 28 28 25 22 19 18 17 15 14 14 16 19 21 22 22 22 24 23 20 19 17 16 16 14 14 16 22 27 32 34 37 37 37 39 40 39 39 40 42 43 42 42 46 49 52 58 63 65 64 58 56 55 52 49 47 47 47 49 51 51 48 46 43 42 41 44 46 46
47 47 45 42 41 40 38 36 36 36 35 35 33 33 32 31 31 31 31 29 27 24 22 21 19 18 17 18 20 22 22 22 23 26 26 26 24 23 23 21 20 24 24 23 25 28 33 38 39 38 37 37 40 42 43 44 47 48 49 50 51 53 57 62 66 67 63 59 56 nan nan nan nan nan nan nan nan nan nan nan nan nan 41 44 44
43 42 42 41 40 39 37 36 37 38 37 37 36 35 35 35 33 33 33 32 31 28 26 24 22 21 20 22 22 22 22 22 25 25 26 26 26 27 28 28 29 30 29 30 35 37 38 40 42 42 45 48 49 51 51 51 51 50 51 52 52 53 56 58 61 63 63 62 58 nan nan nan nan nan nan nan nan nan nan nan nan nan nan nan 42
39 38 38 37 36 37 35 35 36 37 42 45 46 43 39 36 35 36 39 37 32 31 29 27 26 25 25 26 25 23 23 24 23 26 28 29 31 32 32 31 33 34 36 42 45 45 46 47 47 48 49 51 52 52 52 52 52 51 52 52 53 56 59 nan nan nan nan nan nan nan nan nan nan nan nan nan nan nan nan nan nan nan nan nan nan
36 35 35 33 31 32 32 32 33 35 35 36 38 40 43 43 42 38 38 39 40 37 35 31 30 30 29 31 30 27 25 26 37 40 38 38 37 37 38 40 42 44 48 50 49 49 48 50 50 51 52 53 54 54 54 53 51 51 53 55 56 nan nan nan nan nan nan nan nan nan nan nan nan nan nan nan nan nan nan nan nan nan nan nan nan
34 34 34 33 30 28 30 31 32 32 31 31 32 33 33 39 45 45 40 38 37 38 36 33 32 31 34 34 37 42 39 43 43 43 45 45 46 48 50 52 53 54 53 54 50 50 51 53 53 54 55 56 57 56 55 54 53 53 nan nan nan nan nan nan nan nan nan nan nan nan nan nan nan nan nan nan nan nan nan nan nan nan nan nan nan
34 33 34 32 31 30 31 31 32 32 32 31 31 31 33 35 37 43 44 41 43 43 43 43 40 36 37 42 43 41 44 45 46 47 48 50 51 52 53 54 54 55 51 54 54 52 53 55 55 56 57 59 58 57 56 56 nan nan nan nan nan nan nan nan nan nan nan nan nan nan nan nan nan nan nan nan nan nan nan nan nan nan nan nan nan
34 33 34 33 33 33 33 32 32 31 30 30 29 29 31 32 35 36 40 44 48 48 48 48 49 49 49 47 46 46 47 48 50 51 52 53 54 54 55 54 53 52 55 54 55 55 55 57 58 58 59 59 58 58 nan nan nan nan nan nan nan nan nan nan nan nan nan nan nan nan nan nan nan nan nan nan nan nan nan nan nan nan nan nan nan
34 33 34 34 33 33 32 32 31 30 29 29 29 30 31 33 34 36 38 38 43 46 49 51 50 52 54 54 55 55 55 55 55 55 56 56 57 58 59 55 56 52 54 54 56 57 57 59 59 59 59 59 nan nan nan nan nan nan nan nan nan nan nan nan nan nan nan nan nan nan nan nan nan nan nan nan nan nan nan nan nan nan nan nan nan
37 37 38 37 34 33 33 32 32 32 32 32 32 33 35 35 36 36 37 40 42 42 41 44 48 52 51 51 54 57 57 57 57 56 58 58 60 61 61 58 56 55 55 54 56 57 57 58 58 58 nan nan nan nan nan nan nan nan nan nan nan nan nan nan nan nan nan nan nan nan nan nan nan nan nan nan nan nan nan nan nan nan nan nan nan
38 38 38 37 36 36 36 34 33 33 34 35 37 38 38 39 39 40 42 43 45 45 45 45 45 48 56 55 54 55 57 57 58 58 57 56 52 51 56 55 56 55 55 54 56 56 57 58 nan nan nan nan nan nan nan nan nan nan nan nan nan nan nan nan nan nan nan nan nan nan nan nan nan nan nan nan nan nan nan nan nan nan nan nan nan
40 39 39 38 38 39 38 38 37 37 39 39 40 41 41 42 43 44 45 46 47 47 48 46 47 49 50 48 51 54 56 57 56 57 57 56 56 55 55 55 56 55 55 56 56 57 nan nan nan nan nan nan nan nan nan nan nan nan nan nan nan nan nan nan nan nan nan nan nan nan nan nan nan nan nan nan nan nan nan nan nan nan nan nan nan
41 40 40 40 40 41 41 40 41 42 42 42 42 43 44 45 46 47 48 49 49 50 49 47 47 49 49 47 46 48 52 54 58 57 55 56 56 56 55 55 56 56 57 56 nan nan nan nan nan nan nan nan nan nan nan nan nan nan nan nan nan nan nan nan nan nan nan nan nan nan nan nan nan nan nan nan nan nan nan nan nan nan nan nan nan
43 43 44 43 42 42 42 43 42 42 43 44 44 46 47 48 48 49 51 51 52 52 50 50 50 50 50 50 51 49 52 53 53 54 54 55 55 55 56 55 55 56 nan nan nan nan nan nan nan nan nan nan nan nan nan nan nan nan nan nan nan nan nan nan nan nan nan nan nan nan nan nan nan nan nan nan nan nan nan nan nan nan nan nan nan
45 45 46 47 46 45 45 45 45 44 44 46 47 49 52 52 51 52 53 54 56 56 53 51 50 49 48 49 50 49 53 54 53 53 55 56 56 55 56 nan nan nan nan nan nan nan nan nan nan nan nan nan nan nan nan nan nan nan nan nan nan nan nan nan nan nan nan nan nan nan nan nan nan nan nan nan nan nan nan nan nan nan nan nan nan
48 47 47 48 48 48 47 48 48 48 47 48 50 53 54 55 56 55 55 53 54 56 54 51 50 49 47 48 50 52 54 54 53 54 55 56 nan nan nan nan nan nan nan nan nan nan nan nan nan nan nan nan nan nan nan nan nan nan nan nan nan nan nan nan nan nan nan nan nan nan nan nan nan nan nan nan nan nan nan nan nan nan nan nan nan
51 51 51 51 52 51 50 50 50 51 50 51 54 56 56 56 56 57 55 53 54 53 51 49 50 49 48 52 55 58 57 55 54 nan nan nan nan nan nan nan nan nan nan nan nan nan nan nan nan nan nan nan nan nan nan nan nan nan nan nan nan nan nan nan nan nan nan nan nan nan nan nan nan nan nan nan nan nan nan nan nan nan nan nan nan
53 53 53 53 55 54 54 53 53 53 53 54 56 58 58 59 59 59 57 57 57 55 54 55 53 51 50 51 57 59 58 nan nan nan nan nan nan nan nan nan nan nan nan nan nan nan nan nan nan nan nan nan nan nan nan nan nan nan nan nan nan nan nan nan nan nan nan nan nan nan nan nan nan nan nan nan nan nan nan nan nan nan nan nan nan
53 54 55 56 57 58 58 58 58 59 59 61 63 63 63 63 63 63 63 62 61 61 61 60 58 55 55 56 59 60 60 nan nan nan nan nan nan nan nan nan nan nan nan nan nan nan nan nan nan nan nan nan nan nan nan nan nan nan nan nan nan nan nan nan nan nan nan nan nan nan nan nan nan nan nan nan nan nan nan nan nan nan nan nan nan
53 55 56 57 57 59 59 60 62 63 64 65 65 66 67 67 67 66 66 66 65 65 64 63 62 60 60 60 61 63 63 nan nan nan nan nan nan nan nan nan nan nan nan nan nan nan nan nan nan nan nan nan nan nan nan nan nan nan nan nan nan nan nan nan nan nan nan nan nan nan nan nan nan nan nan nan nan nan nan nan nan nan nan nan nan
56 55 56 57 60 61 62 63 66 69 71 69 69 67 68 71 70 70 69 69 69 67 66 65 64 64 63 63 64 nan nan nan nan nan nan nan nan nan nan nan nan nan nan nan nan nan nan nan nan nan nan nan nan nan nan nan nan nan nan nan nan nan nan nan nan nan nan nan nan nan nan nan nan nan nan nan nan nan nan nan nan nan nan nan nan
61 62 61 61 61 63 66 66 68 71 72 73 75 75 74 73 73 73 73 73 71 69 69 67 66 66 66 65 nan nan nan nan nan nan nan nan nan nan nan nan nan nan nan nan nan nan nan nan nan nan nan nan nan nan nan nan nan nan nan nan nan nan nan nan nan nan nan nan nan nan nan nan nan nan nan nan nan nan nan nan nan nan nan nan nan
67 67 67 68 69 71 70 70 74 76 78 79 79 79 78 76 76 75 74 73 73 71 71 70 68 68 68 nan nan nan nan nan nan nan nan nan nan nan nan nan nan nan nan nan nan nan nan nan nan nan nan nan nan nan nan nan nan nan nan nan nan nan nan nan nan nan nan nan nan nan nan nan nan nan nan nan nan nan nan nan nan nan nan nan nan
71 73 72 72 75 76 71 65 62 64 69 70 74 78 75 74 74 74 74 73 73 73 70 70 nan nan nan nan nan nan nan nan nan nan nan nan nan nan nan nan nan nan nan nan nan nan nan nan nan nan nan nan nan nan nan nan nan nan nan nan nan nan nan nan nan nan nan nan nan nan nan nan nan nan nan nan nan nan nan nan nan nan nan nan nan
57 66 72 73 74 75 71 63 57 57 58 58 62 66 67 68 nan 72 72 73 nan nan nan nan nan nan nan nan nan nan nan nan nan nan nan nan nan nan nan nan nan nan nan nan nan nan nan nan nan nan nan nan nan nan nan nan nan nan nan nan nan nan nan nan nan nan nan nan nan nan nan nan nan nan nan nan nan nan nan nan nan nan nan nan nan
39 45 59 69 74 74 70 61 56 nan 57 57 57 nan nan nan nan nan nan nan nan nan nan nan nan nan nan nan nan nan nan nan nan nan nan nan nan nan nan nan nan nan nan nan nan nan nan nan nan nan nan nan nan nan nan nan nan nan nan nan nan nan nan nan nan nan nan nan nan nan nan nan nan nan nan nan nan nan nan nan nan nan nan nan nan
Wind_Direction
239 216 219 218 225 224 216 214 214 211 207 201 191 190 195 194 190 181 193 181 179 173 174 179 201 281 319 313 325 320 322 322 314 316 324 334 337 339 335 338 350 354 351 356 359 1 8 13 17 20 19 24 nan nan nan nan nan nan nan 10 19 nan nan nan nan nan nan nan nan nan nan nan nan nan nan nan nan nan 6 nan nan nan nan nan nan
250 234 225 220 227 223 217 214 215 213 205 194 188 192 194 193 190 193 185 181 191 182 187 200 215 259 286 310 313 316 316 318 311 308 318 327 332 323 327 332 341 347 339 349 352 354 356 4 12 12 7 19 28 nan nan 14 nan nan nan 4 12 13 9 nan nan nan nan nan nan nan nan nan nan nan nan nan nan nan nan 358 355 nan nan nan nan
228 223 217 214 215 215 216 216 216 212 200 191 188 192 193 192 193 186 182 188 193 196 204 217 237 261 279 295 305 307 313 313 308 311 320 326 329 327 326 329 339 343 342 350 350 346 347 354 6 4 356 7 21 30 nan 22 3 5 11 352 3 6 359 2 359 18 nan nan nan nan nan nan 354 356 nan nan nan nan nan nan 352 350 351 nan nan
218 211 199 192 198 203 205 208 211 203 191 192 195 195 197 194 191 184 187 192 196 203 215 226 239 257 275 286 298 305 311 313 312 314 324 325 327 332 330 332 339 345 348 349 345 339 348 348 359 360 355 1 14 23 27 nan nan nan 4 354 350 2 356 348 359 8 8 nan nan nan nan nan nan nan 341 340 344 343 nan nan nan 348 349 348 nan
216 205 196 185 183 184 187 194 193 190 188 195 198 201 198 194 190 186 193 192 198 212 218 229 238 248 258 279 299 310 320 317 317 319 317 318 325 328 330 332 339 348 350 350 340 340 343 349 360 355 350 358 11 21 23 19 nan nan 8 356 355 2 355 354 0 359 8 10 3 347 347 346 341 335 332 338 339 338 334 337 nan nan 346 346 344
206 201 194 186 180 175 176 182 179 183 189 194 197 197 192 186 185 189 198 196 205 217 226 233 240 249 251 261 277 295 293 298 313 316 314 310 312 316 320 327 334 338 343 346 343 337 342 352 355 349 350 358 13 21 19 20 14 12 nan nan nan 7 13 10 3 7 7 14 4 4 342 352 348 343 332 334 340 339 333 332 334 339 nan nan 347
205 199 192 181 179 170 172 177 181 183 188 189 190 186 177 175 183 191 207 207 218 222 231 242 240 243 246 251 263 280 284 286 293 297 298 300 302 305 311 315 318 322 331 340 338 338 343 347 349 349 358 6 16 24 24 19 12 14 9 nan nan nan 22 16 7 9 9 14 10 360 357 347 346 352 333 333 337 337 333 nan nan nan nan nan 348
205 196 190 178 172 169 175 181 183 184 187 186 182 176 175 181 188 198 211 218 222 232 239 246 244 246 250 256 262 263 274 287 297 299 301 303 301 305 308 305 311 317 321 325 328 335 343 348 355 359 9 17 23 32 24 25 15 16 3 357 6 16 nan 13 1 1 4 7 9 7 350 352 340 339 324 322 329 331 328 nan nan nan nan nan nan
206 194 188 181 175 180 185 185 188 189 188 187 180 178 185 191 198 204 214 221 227 233 240 246 249 253 258 266 269 274 288 305 303 309 314 318 313 319 322 318 314 308 309 317 319 330 340 354 6 17 25 34 36 37 31 21 13 15 7 357 7 13 15 nan nan nan 355 358 4 352 350 352 347 335 332 330 333 339 nan nan nan nan nan nan nan
200 190 183 182 185 191 193 192 192 191 190 188 188 195 202 205 208 213 222 233 238 242 246 254 261 268 265 264 266 277 298 295 335 357 346 323 315 309 302 314 286 273 282 294 305 332 10 24 35 40 39 38 36 36 35 29 23 15 5 353 3 5 6 358 348 345 346 352 355 350 348 353 347 334 334 332 325 nan nan nan nan nan nan nan nan
189 183 178 187 193 195 194 189 192 189 188 199 209 217 220 220 221 226 232 240 247 251 256 264 265 255 255 257 274 285 294 301 2 351 357 4 336 308 316 245 235 232 239 260 347 21 36 44 50 49 44 41 36 34 28 25 22 20 17 6 357 356 356 351 345 339 339 345 346 339 341 348 340 329 327 324 313 nan 320 nan nan nan nan nan 335
173 174 180 191 191 190 188 190 191 191 202 208 221 231 234 236 237 239 241 245 245 248 257 262 254 249 244 250 269 287 286 346 0 353 354 1 2 12 196 198 205 192 170 109 90 79 68 56 47 41 35 31 25 19 18 18 16 14 11 7 4 3 358 348 341 334 334 337 338 338 334 333 331 323 320 313 314 nan nan nan nan nan nan nan nan
163 164 173 179 177 177 179 183 177 187 199 211 223 235 246 252 254 250 248 244 239 245 252 251 249 252 254 260 263 271 268 346 349 350 349 0 19 45 144 155 147 131 115 95 86 79 75 66 55 37 26 28 17 6 358 354 357 5 3 358 359 2 1 358 348 337 326 328 331 335 330 322 320 323 315 308 303 309 309 313 314 315 nan nan 324
157 154 162 161 158 160 166 162 157 176 210 227 235 245 262 274 265 255 247 246 245 241 244 250 245 246 252 256 250 245 261 318 333 339 352 10 21 22 122 121 131 119 100 92 91 77 65 56 46 34 14 359 351 350 345 341 335 331 333 333 336 346 352 355 346 339 333 327 325 331 329 314 321 319 311 306 311 317 314 316 314 315 317 321 324
161 163 166 163 164 170 181 185 193 217 243 259 259 268 286 269 265 256 251 252 248 245 246 244 239 241 247 251 246 242 238 297 297 328 354 1 3 328 154 146 140 125 111 102 86 74 62 45 35 24 1 345 337 336 331 328 326 328 330 328 327 329 333 332 323 320 321 322 324 329 329 320 319 321 315 312 318 318 315 316 316 315 311 304 304
169 172 175 177 182 193 211 219 231 242 260 269 275 283 284 282 275 260 249 241 239 240 240 241 240 240 246 249 242 221 224 278 290 307 330 325 308 243 204 166 138 126 123 123 109 95 62 25 9 358 351 340 339 340 333 320 319 327 329 325 319 320 327 324 323 321 319 318 319 323 325 326 323 321 320 317 315 313 309 307 306 303 299 302 308
174 176 177 185 196 209 222 236 244 260 272 278 287 290 291 291 278 261 254 246 244 246 244 246 240 234 236 240 233 209 216 252 283 293 297 296 264 227 220 197 165 139 133 140 135 97 7 335 330 330 334 333 333 332 330 324 320 325 322 318 313 316 322 305 312 321 323 331 335 336 338 336 330 330 331 328 319 312 304 306 314 306 304 311 316
184 185 184 194 203 214 229 241 247 259 269 282 293 296 301 297 296 278 269 255 249 248 244 241 241 236 233 232 230 219 220 246 280 280 287 285 273 240 225 215 178 162 151 151 177 196 353 11 347 327 329 323 324 327 326 317 317 320 318 314 317 318 310 296 295 300 316 327 331 333 334 334 330 332 332 329 325 311 308 318 321 309 317 322 321
193 192 194 202 207 217 232 243 248 255 267 279 284 292 297 305 307 296 285 262 248 243 243 242 240 237 232 225 226 231 228 245 277 281 284 281 267 232 232 220 198 186 196 191 221 240 270 313 343 335 324 320 324 322 322 315 314 316 317 317 319 318 306 301 302 296 285 288 304 310 313 321 320 319 321 330 327 317 316 326 326 320 324 326 318
196 199 202 206 208 216 225 239 248 253 258 262 264 273 274 274 284 294 296 280 257 245 243 243 243 239 237 231 227 234 238 240 254 281 278 280 285 249 233 226 211 207 220 227 231 257 283 289 305 322 332 333 327 323 319 318 317 315 313 314 314 312 304 301 293 283 280 300 313 309 313 314 313 315 316 318 319 320 325 330 330 325 323 322 318
201 203 207 208 211 215 219 230 245 252 255 258 261 264 263 267 274 283 292 290 281 258 248 242 239 237 238 235 230 236 243 246 247 274 275 282 287 278 240 233 226 231 237 249 267 281 291 294 291 307 322 328 327 325 320 317 317 313 310 309 309 305 293 290 285 286 301 318 313 307 310 314 315 315 317 319 322 322 323 325 325 322 320 319 318
206 211 211 212 214 216 218 221 231 241 249 253 254 258 262 265 265 273 275 279 289 287 262 247 241 239 239 237 235 238 247 261 242 258 276 282 288 305 270 257 266 264 269 277 286 289 293 293 293 303 317 319 317 313 306 301 304 300 304 310 310 299 292 289 293 294 307 320 319 317 320 322 320 317 317 317 316 316 316 317 317 318 316 316 317
207 210 217 220 219 222 223 227 230 231 238 249 256 260 262 265 265 265 269 272 279 285 277 260 250 245 241 239 238 242 244 246 259 254 271 285 295 307 327 305 303 292 289 289 290 287 282 281 285 292 286 283 282 285 290 294 295 304 314 306 298 294 294 295 297 301 312 324 323 319 320 319 315 315 316 314 314 317 317 317 316 315 314 315 317
211 213 214 216 223 228 232 234 234 234 239 243 247 252 257 261 262 262 264 267 271 275 269 263 256 251 248 243 242 243 244 244 251 270 271 290 296 310 319 323 301 283 285 280 275 276 272 268 264 261 265 268 271 275 282 290 297 300 300 304 306 302 300 297 300 303 318 324 319 320 322 323 319 318 319 318 318 321 322 318 314 314 314 314 317
213 216 215 215 217 220 226 231 234 236 238 240 242 245 251 256 260 259 259 260 263 266 266 265 261 254 250 249 248 247 246 247 249 264 281 287 297 299 302 304 303 294 275 272 269 262 261 261 260 263 267 270 272 276 282 289 296 298 299 300 301 301 302 304 307 310 316 318 316 319 320 321 322 323 321 317 318 320 320 316 313 312 314 316 318
211 213 216 218 219 221 223 226 229 234 238 238 239 241 248 254 257 258 260 260 259 258 257 258 256 253 251 249 250 251 252 252 255 258 263 268 270 279 288 289 291 290 273 249 249 254 257 259 266 269 272 274 277 281 283 285 288 293 297 299 299 302 303 306 309 312 316 317 317 319 321 319 320 321 319 318 318 322 319 315 312 314 316 316 316
212 213 215 219 222 226 227 228 229 230 233 234 235 237 239 243 247 252 256 258 258 255 252 251 250 249 250 250 250 251 253 255 258 258 261 265 265 268 269 265 265 261 263 266 264 264 266 269 270 273 278 281 285 288 289 288 289 291 293 297 300 302 305 307 311 315 317 316 316 nan nan nan nan nan nan nan nan nan nan nan nan nan 316 315 319
216 214 214 219 225 227 229 231 234 234 233 234 237 237 236 238 242 247 252 256 258 258 256 253 252 252 249 250 251 252 253 258 260 262 262 265 266 266 268 267 268 270 270 268 269 269 271 274 276 277 279 279 280 282 284 285 286 287 289 292 294 297 299 302 306 312 315 316 318 nan nan nan nan nan nan nan nan nan nan nan nan nan nan nan 319
218 217 217 219 223 228 233 234 237 239 237 232 231 231 233 234 240 242 241 245 255 258 258 255 254 252 252 252 253 249 251 254 257 261 264 268 270 268 268 270 269 269 269 270 269 271 274 276 278 278 278 280 281 283 285 286 287 289 293 295 296 298 300 nan nan nan nan nan nan nan nan nan nan nan nan nan nan nan nan nan nan nan nan nan nan
221 219 218 220 227 231 234 237 239 242 244 244 244 240 239 242 236 240 246 237 238 242 251 258 256 257 256 250 249 256 255 253 257 261 262 264 264 265 265 267 270 270 273 277 275 275 277 279 279 281 282 282 284 285 285 286 288 290 293 296 298 nan nan nan nan nan nan nan nan nan nan nan nan nan nan nan nan nan nan nan nan nan nan nan nan
223 223 222 221 225 235 239 241 241 244 245 247 248 250 246 237 237 238 240 241 242 245 250 247 243 256 263 259 249 241 251 263 266 266 266 265 266 266 268 270 272 275 277 274 270 275 279 280 281 282 283 284 285 286 287 288 290 292 nan nan nan nan nan nan nan nan nan nan nan nan nan nan nan nan nan nan nan nan nan nan nan nan nan nan nan
225 224 225 225 228 235 240 244 247 248 247 247 250 253 251 249 242 236 238 241 243 244 244 245 248 257 266 267 263 250 250 257 265 267 267 268 268 268 269 271 273 274 273 272 273 274 277 280 281 281 283 284 285 287 289 291 nan nan nan nan nan nan nan nan nan nan nan nan nan nan nan nan nan nan nan nan nan nan nan nan nan nan nan nan nan
229 227 228 227 233 237 240 245 247 250 253 253 252 253 256 257 256 251 242 245 248 246 243 243 246 249 253 255 259 264 267 263 261 262 264 266 267 267 269 270 272 273 272 270 276 277 277 279 280 281 283 285 287 288 nan nan nan nan nan nan nan nan nan nan nan nan nan nan nan nan nan nan nan nan nan nan nan nan nan nan nan nan nan nan nan
231 231 231 234 237 241 243 247 249 250 250 252 254 254 255 256 259 259 259 256 251 248 246 244 246 250 249 254 258 261 263 265 265 265 266 268 270 270 270 269 269 268 271 275 275 277 278 279 280 282 284 286 nan nan nan nan nan nan nan nan nan nan nan nan nan nan nan nan nan nan nan nan nan nan nan nan nan nan nan nan nan nan nan nan nan
230 230 229 236 239 243 246 248 251 252 253 254 254 255 255 255 258 259 261 261 259 257 255 250 245 248 254 254 257 260 261 262 264 266 267 269 271 273 271 269 267 267 267 269 274 276 279 280 281 282 nan nan nan nan nan nan nan nan nan nan nan nan nan nan nan nan nan nan nan nan nan nan nan nan nan nan nan nan nan nan nan nan nan nan nan
232 234 235 234 238 245 249 249 252 255 258 256 255 254 255 257 258 259 258 259 261 262 257 254 256 254 256 255 258 260 262 263 264 265 265 263 262 264 268 269 269 270 271 272 274 276 277 279 nan nan nan nan nan nan nan nan nan nan nan nan nan nan nan nan nan nan nan nan nan nan nan nan nan nan nan nan nan nan nan nan nan nan nan nan nan
236 239 238 238 240 246 248 251 250 251 252 255 257 258 257 257 258 259 259 261 260 260 261 263 262 259 257 256 259 259 261 262 261 260 260 262 264 266 269 272 273 273 273 275 276 278 nan nan nan nan nan nan nan nan nan nan nan nan nan nan nan nan nan nan nan nan nan nan nan nan nan nan nan nan nan nan nan nan nan nan nan nan nan nan nan
241 242 243 245 247 249 251 251 253 254 255 256 257 258 260 260 260 260 261 260 262 264 264 264 265 268 269 267 266 265 265 266 266 263 262 263 264 267 269 271 272 275 276 277 nan nan nan nan nan nan nan nan nan nan nan nan nan nan nan nan nan nan nan nan nan nan nan nan nan nan nan nan nan nan nan nan nan nan nan nan nan nan nan nan nan
244 246 249 248 249 253 254 255 256 258 259 260 263 265 266 266 266 266 266 265 263 260 259 259 260 264 266 267 266 267 267 265 265 267 267 267 268 269 271 273 274 275 nan nan nan nan nan nan nan nan nan nan nan nan nan nan nan nan nan nan nan nan nan nan nan nan nan nan nan nan nan nan nan nan nan nan nan nan nan nan nan nan nan nan nan
248 249 251 253 252 252 254 256 257 258 261 263 262 261 261 259 259 261 263 265 266 263 261 261 262 262 263 265 265 264 265 266 268 270 272 271 271 271 273 nan nan nan nan nan nan nan nan nan nan nan nan nan nan nan nan nan nan nan nan nan nan nan nan nan nan nan nan nan nan nan nan nan nan nan nan nan nan nan nan nan nan nan nan nan nan
248 248 251 254 255 255 254 256 257 258 258 260 263 263 263 264 265 264 263 262 263 262 258 258 262 264 265 265 264 264 268 269 270 271 273 274 nan nan nan nan nan nan nan nan nan nan nan nan nan nan nan nan nan nan nan nan nan nan nan nan nan nan nan nan nan nan nan nan nan nan nan nan nan nan nan nan nan nan nan nan nan nan nan nan nan
248 249 251 252 254 255 256 256 258 260 260 260 258 259 262 264 265 266 265 266 266 264 262 261 261 260 258 262 265 266 267 268 269 nan nan nan nan nan nan nan nan nan nan nan nan nan nan nan nan nan nan nan nan nan nan nan nan nan nan nan nan nan nan nan nan nan nan nan nan nan nan nan nan nan nan nan nan nan nan nan nan nan nan nan nan
248 248 249 250 251 253 254 256 258 259 259 260 261 262 263 263 263 263 263 263 263 262 260 262 263 263 260 259 261 261 261 nan nan nan nan nan nan nan nan nan nan nan nan nan nan nan nan nan nan nan nan nan nan nan nan nan nan nan nan nan nan nan nan nan nan nan nan nan nan nan nan nan nan nan nan nan nan nan nan nan nan nan nan nan nan
250 249 250 251 252 253 253 255 256 256 257 259 259 260 261 262 262 263 263 262 261 260 260 261 262 261 260 258 258 258 259 nan nan nan nan nan nan nan nan nan nan nan nan nan nan nan nan nan nan nan nan nan nan nan nan nan nan nan nan nan nan nan nan nan nan nan nan nan nan nan nan nan nan nan nan nan nan nan nan nan nan nan nan nan nan
247 250 252 252 252 253 253 254 255 256 257 257 258 258 260 260 260 261 261 262 261 261 261 262 262 260 259 258 258 259 260 nan nan nan nan nan nan nan nan nan nan nan nan nan nan nan nan nan nan nan nan nan nan nan nan nan nan nan nan nan nan nan nan nan nan nan nan nan nan nan nan nan nan nan nan nan nan nan nan nan nan nan nan nan nan
249 249 251 254 256 257 256 256 256 256 256 254 255 254 255 257 258 259 260 260 260 261 261 261 261 261 261 261 261 nan nan nan nan nan nan nan nan nan nan nan nan nan nan nan nan nan nan nan nan nan nan nan nan nan nan nan nan nan nan nan nan nan nan nan nan nan nan nan nan nan nan nan nan nan nan nan nan nan nan nan nan nan nan nan nan
250 253 253 253 253 256 257 257 258 258 257 257 257 257 257 257 258 259 259 259 260 261 261 261 261 261 261 261 nan nan nan nan nan nan nan nan nan nan nan nan nan nan nan nan nan nan nan nan nan nan nan nan nan nan nan nan nan nan nan nan nan nan nan nan nan nan nan nan nan nan nan nan nan nan nan nan nan nan nan nan nan nan nan nan nan
254 254 254 256 256 256 255 255 258 259 259 258 258 256 256 256 256 256 256 257 258 259 260 260 260 260 261 nan nan nan nan nan nan nan nan nan nan nan nan nan nan nan nan nan nan nan nan nan nan nan nan nan nan nan nan nan nan nan nan nan nan nan nan nan nan nan nan nan nan nan nan nan nan nan nan nan nan nan nan nan nan nan nan nan nan
252 253 254 255 256 256 256 255 256 256 256 254 254 253 252 252 252 253 253 255 256 257 257 259 nan nan nan nan nan nan nan nan nan nan nan nan nan nan nan nan nan nan nan nan nan nan nan nan nan nan nan nan nan nan nan nan nan nan nan nan nan nan nan nan nan nan nan nan nan nan nan nan nan nan nan nan nan nan nan nan nan nan nan nan nan
246 248 251 252 253 253 252 252 252 253 253 251 248 248 247 247 nan 251 252 254 nan nan nan nan nan nan nan nan nan nan nan nan nan nan nan nan nan nan nan nan nan nan nan nan nan nan nan nan nan nan nan nan nan nan nan nan nan nan nan nan nan nan nan nan nan nan nan nan nan nan nan nan nan nan nan nan nan nan nan nan nan nan nan nan nan
230 230 236 241 245 248 248 245 245 nan 249 248 247 nan nan nan nan nan nan nan nan nan nan nan nan nan nan nan nan nan nan nan nan nan nan nan nan nan nan nan nan nan nan nan nan nan nan nan nan nan nan nan nan nan nan nan nan nan nan nan nan nan nan nan nan nan nan nan nan nan nan nan nan nan nan nan nan nan nan nan nan nan nan nan nan